Date,TemperatureHighF,TemperatureAvgF,TemperatureLowF,DewpointHighF,DewpointAvgF,DewpointLowF,HumidityHigh,HumidityAvg,HumidityLow,PressureMaxIn,PressureMinIn,WindSpeedMaxMPH,WindSpeedAvgMPH,GustSpeedMaxMPH,PrecipitationSumIn
2013-2-1,59.5,48.6,33.0,32.4,25.7,22.2,75,43,28,30.42,30.27,8,2,8,0.00
2013-2-2,69.9,42.5,30.8,43.0,29.9,22.6,74,63,36,30.27,30.15,9,1,9,0.00
2013-2-3,70.1,47.2,32.6,47.8,34.3,27.8,94,68,26,30.21,30.06,14,1,14,0.00
2013-2-4,61.1,45.2,37.1,44.0,34.6,29.8,84,68,39,30.09,29.91,6,1,6,0.00
2013-2-5,68.8,60.5,48.5,57.9,54.9,47.7,98,83,66,30.00,29.94,6,1,6,0.00
2013-2-6,73.7,55.9,45.1,58.9,50.4,44.5,98,85,49,30.09,29.94,7,1,7,0.25
2013-2-7,70.4,59.9,49.9,60.5,57.2,49.4,98,92,61,29.94,29.82,5,0,5,0.00
2013-2-8,59.8,52.2,42.9,59.1,50.5,39.3,98,94,73,30.18,29.91,6,0,6,0.00
2013-2-9,67.6,49.1,1.0,44.9,38.9,0.0,98,73,37,30.21,30.03,8,1,8,0.00
2013-2-10,64.1,58.6,1.0,63.6,57.6,0.0,98,96,86,30.03,29.85,10,2,12,1.66
2013-2-11,58.2,53.4,50.5,57.6,52.8,49.9,98,98,98,30.09,30.00,5,0,5,1.24
2013-2-12,52.3,50.4,49.2,51.7,49.9,48.7,98,98,97,30.09,29.74,7,1,7,1.46
2013-2-13,52.4,47.7,33.4,51.0,44.2,31.8,98,88,57,30.03,29.76,13,2,13,0.00
2013-2-14,65.8,43.9,29.9,45.2,34.6,28.9,98,75,35,30.09,30.00,8,1,8,0.00
2013-2-15,66.5,47.0,31.6,48.3,35.0,29.7,98,68,34,30.12,30.03,11,2,11,0.00
2013-2-16,53.0,42.1,28.9,30.6,21.7,0.0,100,46,28,30.24,30.12,17,3,17,0.00
2013-2-17,65.9,43.5,26.5,32.4,26.6,20.3,83,56,26,30.27,30.12,10,1,10,0.00
2013-2-18,68.8,55.8,36.4,56.7,46.1,31.9,98,72,45,30.12,29.85,19,5,19,0.70
2013-2-19,63.1,50.2,35.2,56.9,36.2,26.2,98,63,29,30.21,29.85,15,2,15,0.17
2013-2-20,60.7,39.4,33.4,32.2,27.4,20.9,81,65,26,30.24,30.03,10,0,10,0.00
2013-2-21,65.6,52.6,41.3,64.8,40.1,22.2,98,65,42,30.03,29.68,13,3,13,4.24
2013-2-22,70.3,56.4,50.8,60.0,51.6,40.2,98,87,36,29.97,29.85,6,1,6,0.62
2013-2-23,64.1,51.1,38.9,52.2,45.1,36.5,98,81,56,29.94,29.85,8,1,8,0.00
2013-2-24,75.8,53.5,34.4,45.2,39.1,33.7,98,64,29,29.97,29.74,8,1,8,0.00
2013-2-25,66.8,59.6,54.6,62.8,56.5,41.4,98,90,57,29.76,29.41,11,2,11,0.58
2013-2-26,57.5,45.9,34.6,50.7,34.2,31.3,90,65,49,29.85,29.44,12,2,12,0.00
2013-2-27,67.4,47.5,31.2,43.7,34.7,29.5,97,67,32,29.97,29.85,14,1,14,0.00
2013-2-28,58.2,43.5,33.7,35.5,29.9,25.8,92,62,33,30.06,29.97,13,2,13,0.00